星链-6062 (STARLINK-6062 )

导读

STARLINK-6062是美国SpaceX公司星链(Starlink)星座的成员,属于低轨互联网卫星,于2023年3月29日发射。作为Starlink V1.5批次卫星,质量约297公斤,配备激光星间链路,可实现卫星间直接通信。该卫星运行在近550公里的近地轨道,为全球提供高速宽带互联网接入服务,是星链全球覆盖网络的重要组成部分。

基本信息
目录编号:
56104
目录名称:
STARLINK-6062
国际标识:
2023-046M
轨道中心:
EARTH
卫星名称:
星链-6062
卫星全名:
星链-6062 (STARLINK-6062 )
卫星状态:
在轨 (已飞行1262 天)
发射日期:
2023-03-29 UTC
国别 :
美国 (US)
星等 :
--
该卫星已列入 空间交会检测服务 Space Conjunction Data Service (SCDS) ,当前飞行风险评估等级: 无高风险
轨道信息
数据来源 国际轨道数据 AOE轨道数据
星历时间 2026-09-11T14:01:25+0800
14小时前
查看轨道信息
2026-09-10T23:00:00+0800
1天前
查看轨道信息
半长轴 6861.201km 6861.182km
偏心率 0.0001144 0.000117
轨道倾角 43.002° 43.001°
近地点辐角 262.500° 260.328°
升交点赤经 193.354° 196.891°
平近点角 97.573° 253.227°
近地点 482.279km 482.242km
远地点 483.849km 483.848km
周期 94.267分钟 94.267分钟
每日圈数 15.275753 15.275816
详细信息
固有亮度:
5
最大亮度:
2.5
卫星平台:
Starlink v1.5
覆盖范围:
全球
运营商:
太空探索技术公司
运营商所在国:
美国
制造商(研发单位):
太空探索技术公司
制造商所在国:
美国
使用方式:
暂无
卫星简介
星链(Starlink)计划是由太空探索技术公司(SpaceX)提出的一个巨型低轨卫星互联网星座项目,计划在2019年至2024年间在太空搭建由约1.2万颗卫星组成的“星链”网络,其中1584颗将部署在地球上空550千米处的近地轨道,并从2020年开始工作。该卫星仍在工作。
2D轨道图
3D轨道图
轨道高度分析图
轨道倾角分析图
轨道综合分析图
查看轨道综合分析图
与全量物体交会距离演化趋势
与全量物体交会风险概率演化趋势